User: anonymous   Login
Location: Unspecified
(0.0000°N, 0.0000°E)
Time: 09:25:08
(UTC+00:00)
Language:

CRRES - Orbit

View from above orbital plane
View from above orbital plane
View from above satellite
View from above satellite

Ground track
Ground track

The orbit data is extracted from the following two-line orbital elements,

1 20712U 90065A   18018.56844323 -.00000357 +00000-0 -56255-4 0  9999
2 20712 017.7020 183.4055 7091692 002.8743 359.5036 02.46071974233677
Epoch (UTC): 18 January 2018 13:38:33
Eccentricity: 0.7091692
inclination: 17.7020°
perigee height: 362 km
apogee height: 33232 km
right ascension of ascending node: 183.4055°
argument of perigee: 2.8743°
revolutions per day: 2.46071974
mean anomaly at epoch: 359.5036°
orbit number at epoch: 23367

The dashed part of the orbit path shows where the satellite is in the earth's shadow,  

DLR